Regional Weather Roundup
Issued by NWS

Home | Current Version | Previous Version | Text Only | Print | Product List | Glossary Off
Versions: 1 2 3 4 5 6 7 8 9 10 11 12 13 14 15 16 17 18 19 20 21 22 23 24 25 26 27 28 29 30 31 32 33 34 35 36 37 38 39 40 41 42 43 44 45 46 47 48 49 50

000
ASUS43 KIND 280409
RWRIN

WEATHER ROUNDUP FOR INDIANA
NATIONAL WEATHER SERVICE INDIANAPOLIS IN
1200 AM EDT TUE JUL 28 2015

NOTE: "FAIR" INDICATES FEW OR NO CLOUDS BELOW 12,000 FEET WITH NO
SIGNIFICANT WEATHER AND/OR OBSTRUCTIONS TO VISIBILITY.

* - STATION DOES NOT REPORT WEATHER SUCH AS PRECIPITATION OR FOG.

+ - STATION NOT QUALITY CONTROLLED BY THE NATIONAL WEATHER SERVICE.
    USE DATA WITH CAUTION...ESPECIALLY DEWPOINT AND RELATIVE
    HUMIDITY OBSERVATIONS.

INZ001>003-010>013-019-020-280500-
NORTHWEST INDIANA

CITY           SKY/WX    TMP DP  RH WIND       PRES   REMARKS
GARY /AIRPORT/ PTCLDY    75  70  85 NE6       30.02S
KNOX *+        CLEAR     68  64  88 CALM      30.02R
LA PORTE +     PTCLDY    68  67  97 CALM      30.04R
MICHIGAN CITY+ PTCLDY    68  68 100 CALM      30.03S FOG
MONTICELLO +   MOCLDY    74  66  75 CALM      30.00S
RENSSELAER +   PTCLDY    72  68  88 NE3       30.01F
VALPARAISO     PTCLDY    68  66  93 CALM      30.03R

$$

LMZ046-743>745-280500-
SOUTHERN LAKE MICHIGAN

STATION/POSITION TIME  TEMP    WIND        PRES    WAVE
                       AIR SEA DIR/SP/G            HT
                 (UTC) (F)     (DEG/KT/KT) (MB)    (FT)
BURNS HARBOR     0300   73      80/  9/ 11 1016.9R
MICHIGAN CITY    0300   73      40/ 10/ 11   N/A
5NW MICH CITY    0400   74 75   80/  8/ 10   N/A     2

$$

INZ004-005-014>016-021>024-280500-
NORTH CENTRAL INDIANA

CITY           SKY/WX    TMP DP  RH WIND       PRES   REMARKS
GOSHEN         CLEAR     68  63  84 E3        30.03S
LOGANSPORT +   MOCLDY    70  61  73 CALM      30.02S
PERU/GRISSOM   MOCLDY    74  65  73 E3        30.01F
ROCHESTER +    CLEAR     72  66  83 CALM      30.02S
SOUTH BEND     PTCLDY    72  63  73 CALM      30.04S
WARSAW +       CLEAR     68  63  83 E5        30.03F

$$

INZ006>009-017-018-025>027-280500-
NORTHEAST INDIANA

CITY           SKY/WX    TMP DP  RH WIND       PRES   REMARKS
ANGOLA *+      CLEAR     64  54  68 CALM      30.06R
AUBURN +       PTCLDY    68  61  77 CALM      30.05S
FORT WAYNE     PTCLDY    72  63  73 E7        30.03S
HUNTINGTON +   PTCLDY    73  63  72 E3        30.02S

$$

INZ028-029-035-036-043>045-051>053-280500-
WEST CENTRAL INDIANA

CITY           SKY/WX    TMP DP  RH WIND       PRES   REMARKS
CRAWFORDSVL +  MOCLDY    73  72  97 E3          N/A
GREENCASTLE +  MOCLDY    73  68  83 CALM      30.00F
LAFAYETTE      MOCLDY    73  68  84 NE3       29.99F
TERRE HAUTE    MOCLDY    75  73  93 NE3       29.97F

$$

INZ030>032-037>040-046>048-054>057-064-065-280500-
CENTRAL INDIANA

CITY           SKY/WX    TMP DP  RH WIND       PRES   REMARKS
FRANKFORT +    MOCLDY   N/A N/A N/A CALM      30.03S
GREENWOOD *+   MOCLDY    77  70  78 E5        30.01S
INDIANAPOLIS   CLOUDY    78  71  79 E6        29.99F
-EAGLE CREEK   MOCLDY    78  71  79 E3        29.99F
KOKOMO *+      MOCLDY    72  64  78 E3        30.01F
MARION +       MOCLDY    70  66  87 CALM      30.03S
MT COMFORT *+  MOCLDY    73 N/A N/A E5        30.02S
SHELBYVILLE    MOCLDY    75  72  90 E5        30.00S
ZIONSVILLE +   MOCLDY    73  70  89 CALM      30.02F FOG

$$

INZ033-034-041-042-049-050-058-059-280500-
EAST CENTRAL INDIANA

CITY           SKY/WX    TMP DP  RH WIND       PRES   REMARKS
MUNCIE         MOCLDY    73  69  87 E3        30.03R

$$

INZ060-061-067>069-081>083-085>088-280500-
SOUTHWEST INDIANA

CITY           SKY/WX    TMP DP  RH WIND       PRES   REMARKS
EVANSVILLE     CLOUDY    79  71  76 W5        29.97F
HUNTINGBURG *+ CLOUDY    79  73  83 CALM      29.97F
WASHINGTON +   CLOUDY    77  73  87 CALM      29.96F FOG

$$

INZ062-063-066-070>080-084-089>092-280500-
SOUTH CENTRAL AND SOUTHEAST INDIANA

CITY           SKY/WX    TMP DP  RH WIND       PRES   REMARKS
BLOOMINGTON    MOCLDY    75  74  96 CALM      29.99F
MADISON *+     PTCLDY    75  72  88 NE3       30.02S
NORTH VERNON + PTCLDY    77  77 100 CALM      30.01R
SEYMOUR +      PTCLDY    77  75  94 E3        29.98S

$$




USA.gov is the U.S. government's official web portal to all federal, state and local government web resources and services.